CZ-6A DEB

Satellite information

Favourite Embed

Satellite Type and Status

DEBRISIN ORBIT

Key statistics

Satellite CZ-6A DEB at a glance.

Uptime

1024

Days in orbit

Revolutions

≈ 14.4

Per day

Orbit

SSO

Sun Synchronous Orbit

Inclination

98.7

Latest

Satellite identification and parameters

Extended collection of information and parameters for CZ-6A DEB.

Object identification

Identified? True

Debris? True

Object name: CZ-6A DEB

International designator: 2022-151AGM

Object number (NORAD): 56661

Object ID (CCSDS): 56661

Country: PEOPLES REPUBLIC OF CHINA (PRC)

Current information (Y/N): Y

RCS size: SMALL

Orbital parameters

Period: 100.036 minutes

Inclination: 98.7254 deg

SMA: 7138.356 km

Apoapsis: 834.16 km

Periapsis: 686.282 km

RAAN: 281.968 deg

Eccentricy: 0.01035801

Argument of periapsis: 79.3114 deg

Mean anomaly: 281.9716 deg

Mean motion: 14.39479501 rev/day

Mean motion (dot): 0.00000685 rev/day2

B* drag term: 0.00022076893 1/REarth

Two-line elements (TLE)

Creation date: Aug. 27, 2025, 8:01 p.m.

Reference frame: TEME

Reference center: EARTH

Epoch: Aug. 27, 2025, 8:38 a.m. UTC

TLE line 0: 0 CZ-6A DEB

TLE line 1: 1 56661U 22151AGM 25239.36000113 .00000685 00000-0 22077-3 0 9990

TLE line 2: 2 56661 98.7254 281.9680 0103580 79.3114 281.9716 14.39479501128083

Live tracking on map

Real-time ground track for satellite CZ-6A DEB.

In-orbit conjunctions

A list of the most updated potential collisions computed for object CZ-6A DEB.

Target Orbit TCA Probability of collision Miss distance Type
FENGYUN 1C DEB SSO 2024-10-24 04:37:47 0.0002457848 59.0 (m) DEBRIS
REX 2 SSO 2024-07-09 23:31:57 0.0001270382 924.0 (m) PAYLOAD

Associated space launch

Chinese satellite reported for atmospheric/ocean/environmental/spatial parameter research purposes, details TBD.

CZ-6A DEB was lifted into orbit during the mission ‘Long March 6A | Yunhai 3’, on board a Long March 6A space rocket.

The launch took place on Nov. 11, 2022, 10:52 p.m. from Launch Complex 9A.

For more information about the launch, click the button.

Launch to space Long March 6A | Yunhai 3
Long March 6A | Yunhai 3

Agency: N/A

Status: Launch Successful

Launch date: Nov. 11, 2022, 10:52 p.m. UTC

Rocket: Long March 6A

Launch pad: Launch Complex 9A

Location: Taiyuan Satellite Launch Center, People's Republic of China

...

Latest news about this satellite

There are no fresh news available about this satellite. Check back as we update our databases every day.


Newsletter sign-up

Weekly statistics, charts and insights to help you stay on top of the space industry.